Home > Weather > Hockenheim > Past weeks

Flag for Germany Weather for the Past 2 Weeks in Hockenheim, Baden-Württemberg, Germany

Now
39 °F

Clear.


Feels Like: 39 °F
Forecast: 50 / 75 °F
Wind: 1 mph from East

Location: Ramstein

Current Time: May 6, 2016 at 4:34:45 AM

Latest Report: May 6, 2016 at 3:58 AM


Visibility: N/A

Pressure: 30.04 "Hg

Humidity: 99%

Dew Point: 39 °F

Location of HockenheimLocation

Historic Weather in Hockenheim — Graph

°F

Hockenheim Temperature Yesterday

Maximum temperature yesterday: 67 °F (at 4:58 PM)
Minimum temperature yesterday: 28 °F (at 5:58 AM)
Average temperature yesterday: 50 °F

High & Low Weather Summary for the Past Weeks

 TemperatureHumidityPressure
High69 °F (Apr 21, 3:58 PM)100% (Apr 21, 3:58 AM)30.40 "Hg (Apr 21, 3:58 AM)
Low27 °F (Apr 25, 5:58 AM)25% (Apr 21, 1:58 PM)29.59 "Hg (Apr 26, 2:58 AM)
Average45 °F77%30.03 "Hg
* Reported Apr 21 2:58 AM — May 6 2:58 AM, Hockenheim, Weather by CustomWeather, © 2016

Note: Actual official high and low records may vary slightly from our data, if they occured in-between our weather recording intervals... More about our weather records

Advertising

Hockenheim Weather History for the Previous 24 Hours

Scroll right to see more
 ConditionsComfort  
Time TempWeatherWind HumidityBarometerVisibility
2:58 AM
Fri, May 6
39 °FClear.7 mph100%30.04 "HgN/A
1:58 AM39 °FClear.8 mph98%30.05 "HgN/A
12:58 AM41 °FClear.2 mph100%30.06 "HgN/A
11:58 PM
Thu, May 5
43 °FClear.No wind100%30.06 "HgN/A
10:58 PM50 °FClear.5 mph80%30.08 "HgN/A
9:58 PM54 °FClear.3 mph67%30.08 "HgN/A
8:58 PM61 °FSunny.9 mph52%30.07 "HgN/A
7:58 PM64 °FSunny.13 mph46%30.07 "HgN/A
6:58 PM66 °FSunny.16 mph40%30.10 "HgN/A
5:58 PM67 °FSunny.15 mph40%30.11 "HgN/A
4:58 PM67 °FSunny.13 mph41%30.12 "HgN/A
3:58 PM66 °FSunny.14 mph41%30.14 "HgN/A
2:58 PM64 °FSunny.17 mph42%30.17 "HgN/A
1:58 PM63 °FMild.16 mph41%30.18 "HgN/A
12:58 PM61 °FSunny.18 mph45%30.20 "HgN/A
11:58 AM59 °FSunny.16 mph47%30.23 "HgN/A
10:58 AM57 °FSunny.16 mph43%30.24 "HgN/A
9:58 AM55 °FSunny.14 mph51%30.26 "HgN/A
8:58 AM49 °FSunny.7 mph64%30.28 "HgN/A
7:58 AM41 °FSunny.5 mph81%30.30 "HgN/A
6:58 AM32 °FClear.7 mph93%30.31 "HgN/A
5:58 AM28 °FClear.2 mph99%30.32 "HgN/A
4:58 AM29 °FClear.2 mph99%30.31 "HgN/A
Weather by CustomWeather, © 2016

See weather overviewHow to use our weather pages